AMT11 LOWI-LSMP

Flight info

Callsign AMT11
Flight time 0h 48m
Altitude 26000
Route MOGTI P66 KPT Z601 BODAN Z601 ZUE T125 WIL T544 FRIBU
Aircraft BE20/L-SBGRW/S

Departure

Time 2026-05-06 17:59
Airport Innsbruck Airport (LOWI)

Arrival

Time 2026-05-06 18:48
Airport Payerne Air Base (LSMP)
Time Latitude Longitude Altitude Speed Heading
2026-05-06 17:42 47.25747 11.34655 1894 ft 0 kts 297°
2026-05-06 17:55 47.25753 11.34613 1892 ft 15 kts 269°
2026-05-06 17:55 47.25821 11.34547 1897 ft 15 kts 68°
2026-05-06 17:56 47.25837 11.34707 1889 ft 16 kts 82°
2026-05-06 17:56 47.25859 11.34874 1897 ft 14 kts 80°
2026-05-06 17:56 47.25872 11.35021 1897 ft 14 kts 83°
2026-05-06 17:56 47.25885 11.35156 1895 ft 13 kts 79°
2026-05-06 17:57 47.25897 11.35252 1892 ft 7 kts 74°
2026-05-06 17:57 47.25923 11.35291 1897 ft 3 kts 359°
2026-05-06 17:57 47.25925 11.35291 1897 ft 0 kts 352°
2026-05-06 17:57 47.25971 11.35278 1895 ft 14 kts 351°
2026-05-06 17:58 47.26043 11.35262 1900 ft 11 kts 352°
2026-05-06 17:58 47.26111 11.35240 1895 ft 7 kts 289°
2026-05-06 17:58 47.26111 11.35232 1897 ft 0 kts 258°
2026-05-06 17:58 47.26063 11.34819 1900 ft 88 kts 262°
2026-05-06 17:59 47.25954 11.33642 1977 ft 137 kts 259°
2026-05-06 17:59 47.25817 11.32218 2416 ft 140 kts 260°
2026-05-06 17:59 47.25652 11.30796 2842 ft 148 kts 258°
2026-05-06 17:59 47.25447 11.29299 3570 ft 149 kts 257°
2026-05-06 18:00 47.25219 11.27811 4358 ft 149 kts 256°
2026-05-06 18:00 47.24981 11.26317 5067 ft 152 kts 254°
2026-05-06 18:00 47.24731 11.24780 5744 ft 156 kts 256°
2026-05-06 18:00 47.24838 11.23207 6418 ft 157 kts 297°
2026-05-06 18:01 47.25592 11.22063 7074 ft 156 kts 309°
2026-05-06 18:01 47.26112 11.20671 7681 ft 157 kts 292°
2026-05-06 18:01 47.26612 11.19232 8262 ft 159 kts 296°
2026-05-06 18:01 47.27232 11.17866 8858 ft 163 kts 300°
2026-05-06 18:02 47.27927 11.16521 9451 ft 166 kts 302°
2026-05-06 18:02 47.28612 11.15055 9789 ft 184 kts 297°
2026-05-06 18:02 47.29237 11.13303 9986 ft 201 kts 287°
2026-05-06 18:02 47.29746 11.11370 10400 ft 204 kts 287°
2026-05-06 18:03 47.30149 11.09565 10822 ft 201 kts 277°
2026-05-06 18:03 47.30341 11.07739 11251 ft 199 kts 271°
2026-05-06 18:03 47.30453 11.05711 11731 ft 198 kts 268°
2026-05-06 18:03 47.30402 11.03700 12200 ft 195 kts 261°
2026-05-06 18:04 47.30299 11.01741 12591 ft 194 kts 262°
2026-05-06 18:04 47.30239 10.99744 13013 ft 196 kts 263°
2026-05-06 18:04 47.30425 10.97724 13476 ft 205 kts 283°
2026-05-06 18:04 47.31154 10.95864 13902 ft 217 kts 304°
2026-05-06 18:05 47.32302 10.94364 14303 ft 224 kts 316°
2026-05-06 18:05 47.33566 10.92997 14749 ft 227 kts 318°
2026-05-06 18:05 47.34849 10.91622 15187 ft 228 kts 317°
2026-05-06 18:05 47.36123 10.90213 15584 ft 230 kts 316°
2026-05-06 18:06 47.37387 10.88757 15958 ft 231 kts 316°
2026-05-06 18:06 47.38647 10.87272 16322 ft 233 kts 315°
2026-05-06 18:06 47.39914 10.85757 16582 ft 234 kts 315°
2026-05-06 18:06 47.41177 10.84227 16881 ft 234 kts 313°
2026-05-06 18:07 47.42330 10.82551 17242 ft 232 kts 308°
2026-05-06 18:07 47.43465 10.80844 17654 ft 235 kts 310°
2026-05-06 18:07 47.44642 10.79166 17953 ft 235 kts 310°
2026-05-06 18:07 47.45784 10.77479 18223 ft 236 kts 309°
2026-05-06 18:08 47.46956 10.75755 18550 ft 239 kts 310°
2026-05-06 18:08 47.48142 10.74024 18870 ft 239 kts 307°
2026-05-06 18:08 47.49053 10.71983 19309 ft 232 kts 287°
2026-05-06 18:08 47.49438 10.69747 19789 ft 225 kts 269°
2026-05-06 18:09 47.49505 10.67438 20284 ft 225 kts 265°
2026-05-06 18:09 47.49523 10.65120 20789 ft 226 kts 265°
2026-05-06 18:09 47.49545 10.62944 21211 ft 227 kts 265°
2026-05-06 18:09 47.49587 10.60548 21730 ft 229 kts 266°
2026-05-06 18:10 47.49640 10.58194 22228 ft 230 kts 266°
2026-05-06 18:10 47.49702 10.55829 22701 ft 231 kts 266°
2026-05-06 18:10 47.49840 10.53447 23124 ft 235 kts 271°
2026-05-06 18:10 47.50107 10.51232 23492 ft 237 kts 274°
2026-05-06 18:11 47.50354 10.48896 23823 ft 235 kts 269°
2026-05-06 18:11 47.50525 10.46520 24158 ft 236 kts 270°
2026-05-06 18:11 47.50743 10.44114 24482 ft 236 kts 270°
2026-05-06 18:11 47.50948 10.41729 24793 ft 236 kts 269°
2026-05-06 18:12 47.51147 10.39312 25130 ft 236 kts 269°
2026-05-06 18:12 47.51355 10.36897 25491 ft 237 kts 269°
2026-05-06 18:12 47.51560 10.34457 25712 ft 242 kts 269°
2026-05-06 18:12 47.51771 10.31930 25812 ft 251 kts 269°
2026-05-06 18:13 47.51993 10.29316 25849 ft 260 kts 269°
2026-05-06 18:13 47.52220 10.26632 25870 ft 266 kts 269°
2026-05-06 18:13 47.52449 10.23884 25882 ft 271 kts 270°
2026-05-06 18:13 47.52679 10.21121 25897 ft 276 kts 270°
2026-05-06 18:14 47.52914 10.18290 25897 ft 280 kts 270°
2026-05-06 18:14 47.53153 10.15413 25896 ft 282 kts 270°
2026-05-06 18:14 47.53394 10.12519 25915 ft 284 kts 270°
2026-05-06 18:14 47.53631 10.09604 25904 ft 286 kts 270°
2026-05-06 18:15 47.53873 10.06669 25905 ft 288 kts 270°
2026-05-06 18:15 47.54116 10.03718 25909 ft 289 kts 270°
2026-05-06 18:15 47.54358 10.00748 25895 ft 290 kts 270°
2026-05-06 18:15 47.54596 9.97819 25897 ft 291 kts 270°
2026-05-06 18:16 47.54841 9.94798 25889 ft 292 kts 270°
2026-05-06 18:16 47.55082 9.91821 25894 ft 291 kts 270°
2026-05-06 18:16 47.55320 9.88843 25896 ft 292 kts 270°
2026-05-06 18:16 47.55557 9.85898 25895 ft 292 kts 270°
2026-05-06 18:17 47.55796 9.82912 25894 ft 292 kts 269°
2026-05-06 18:17 47.56034 9.79928 25891 ft 292 kts 270°
2026-05-06 18:17 47.56272 9.76938 25900 ft 292 kts 269°
2026-05-06 18:17 47.56508 9.73954 25893 ft 292 kts 269°
2026-05-06 18:18 47.56744 9.70963 25892 ft 292 kts 269°
2026-05-06 18:18 47.56980 9.67972 25889 ft 293 kts 270°
2026-05-06 18:18 47.57215 9.64975 25893 ft 293 kts 269°
2026-05-06 18:18 47.57449 9.61973 25891 ft 293 kts 269°
2026-05-06 18:19 47.57683 9.58974 25889 ft 294 kts 269°
2026-05-06 18:19 47.57916 9.55967 25888 ft 293 kts 269°
2026-05-06 18:19 47.58148 9.52962 25914 ft 293 kts 269°
2026-05-06 18:19 47.58380 9.49955 25915 ft 293 kts 269°
2026-05-06 18:20 47.58609 9.46947 25917 ft 293 kts 269°
2026-05-06 18:20 47.58794 9.43948 25918 ft 290 kts 264°
2026-05-06 18:20 47.58777 9.40967 25915 ft 289 kts 263°
2026-05-06 18:20 47.58821 9.37979 25918 ft 291 kts 265°
2026-05-06 18:21 47.58850 9.34991 25915 ft 290 kts 263°
2026-05-06 18:21 47.58870 9.31997 25911 ft 290 kts 264°
2026-05-06 18:21 47.58904 9.29004 25911 ft 290 kts 264°
2026-05-06 18:21 47.58926 9.26048 25909 ft 291 kts 264°
2026-05-06 18:22 47.58951 9.23048 25910 ft 291 kts 264°
2026-05-06 18:22 47.58977 9.20048 25910 ft 291 kts 264°
2026-05-06 18:22 47.59000 9.17049 25910 ft 292 kts 264°
2026-05-06 18:22 47.59022 9.14035 25904 ft 292 kts 264°
2026-05-06 18:23 47.59045 9.11025 25895 ft 292 kts 264°
2026-05-06 18:23 47.59065 9.08018 25905 ft 292 kts 264°
2026-05-06 18:23 47.59086 9.05009 25909 ft 292 kts 264°
2026-05-06 18:23 47.59102 9.02608 25907 ft 293 kts 264°
2026-05-06 18:24 47.59121 8.99565 25908 ft 293 kts 264°
2026-05-06 18:24 47.59139 8.96542 25908 ft 294 kts 264°
2026-05-06 18:24 47.59156 8.93548 25910 ft 294 kts 264°
2026-05-06 18:24 47.59173 8.90509 25909 ft 295 kts 264°
2026-05-06 18:25 47.59186 8.87464 25911 ft 295 kts 264°
2026-05-06 18:25 47.59143 8.84429 25910 ft 295 kts 264°
2026-05-06 18:25 47.59230 8.81380 25911 ft 297 kts 267°
2026-05-06 18:25 47.59292 8.78324 25917 ft 296 kts 265°
2026-05-06 18:26 47.59353 8.75262 25915 ft 298 kts 267°
2026-05-06 18:26 47.59428 8.72192 25911 ft 298 kts 266°
2026-05-06 18:26 47.59485 8.69119 25909 ft 298 kts 266°
2026-05-06 18:26 47.59553 8.66046 25911 ft 299 kts 266°
2026-05-06 18:27 47.59615 8.62965 25915 ft 299 kts 266°
2026-05-06 18:27 47.59676 8.59883 25913 ft 300 kts 266°
2026-05-06 18:27 47.59515 8.56846 25919 ft 294 kts 253°
2026-05-06 18:27 47.58866 8.53999 25917 ft 290 kts 243°
2026-05-06 18:28 47.58024 8.51286 25915 ft 290 kts 240°
2026-05-06 18:28 47.57124 8.48611 25911 ft 290 kts 240°
2026-05-06 18:28 47.56199 8.45964 25912 ft 290 kts 239°
2026-05-06 18:28 47.55255 8.43325 25916 ft 290 kts 238°
2026-05-06 18:29 47.54197 8.40804 25916 ft 288 kts 232°
2026-05-06 18:29 47.53074 8.38390 25916 ft 289 kts 234°
2026-05-06 18:29 47.51983 8.35889 25920 ft 289 kts 233°
2026-05-06 18:29 47.50860 8.33421 25916 ft 290 kts 233°
2026-05-06 18:30 47.49747 8.30928 25911 ft 290 kts 234°
2026-05-06 18:30 47.48627 8.28433 25917 ft 291 kts 233°
2026-05-06 18:30 47.47505 8.25946 25913 ft 291 kts 233°
2026-05-06 18:30 47.46386 8.23450 25916 ft 291 kts 233°
2026-05-06 18:31 47.45259 8.20955 25915 ft 292 kts 233°
2026-05-06 18:31 47.44135 8.18458 25914 ft 292 kts 233°
2026-05-06 18:31 47.43008 8.15963 25913 ft 292 kts 233°
2026-05-06 18:31 47.41879 8.13463 25917 ft 293 kts 233°
2026-05-06 18:32 47.40748 8.10962 25918 ft 293 kts 233°
2026-05-06 18:32 47.39615 8.08459 25913 ft 293 kts 233°
2026-05-06 18:32 47.38417 8.06036 25918 ft 291 kts 225°
2026-05-06 18:32 47.36891 8.04106 25916 ft 289 kts 214°
2026-05-06 18:33 47.35213 8.02470 25913 ft 289 kts 211°
2026-05-06 18:33 47.33494 8.00940 25914 ft 289 kts 209°
2026-05-06 18:33 47.31750 7.99464 25914 ft 289 kts 208°
2026-05-06 18:33 47.29976 7.98077 25914 ft 288 kts 203°
2026-05-06 18:34 47.28114 7.96995 25917 ft 288 kts 201°
2026-05-06 18:34 47.26273 7.95821 25916 ft 288 kts 203°
2026-05-06 18:34 47.24424 7.94672 25917 ft 288 kts 202°
2026-05-06 18:34 47.22600 7.93547 25915 ft 288 kts 202°
2026-05-06 18:35 47.20747 7.92328 25921 ft 288 kts 208°
2026-05-06 18:35 47.19125 7.90648 25916 ft 290 kts 218°
2026-05-06 18:35 47.17609 7.88692 25916 ft 290 kts 220°
2026-05-06 18:35 47.16113 7.86655 25629 ft 299 kts 221°
2026-05-06 18:36 47.14575 7.84513 25122 ft 308 kts 221°
2026-05-06 18:36 47.13026 7.82313 24634 ft 310 kts 223°
2026-05-06 18:36 47.12073 7.80738 24237 ft 313 kts 228°
2026-05-06 18:36 47.10696 7.78243 23521 ft 315 kts 226°
2026-05-06 18:37 47.09240 7.75829 22690 ft 317 kts 227°
2026-05-06 18:37 47.07824 7.73351 21887 ft 318 kts 227°
2026-05-06 18:37 47.06369 7.70894 21091 ft 319 kts 227°
2026-05-06 18:37 47.04934 7.68406 20319 ft 320 kts 230°
2026-05-06 18:38 47.03758 7.65618 19569 ft 324 kts 244°
2026-05-06 18:38 47.03074 7.62474 18833 ft 326 kts 257°
2026-05-06 18:38 47.02907 7.59150 18106 ft 329 kts 269°
2026-05-06 18:38 47.03020 7.55802 17284 ft 329 kts 271°
2026-05-06 18:39 47.03191 7.52499 16483 ft 318 kts 272°
2026-05-06 18:39 47.03502 7.49334 15713 ft 309 kts 279°
2026-05-06 18:39 47.03968 7.46292 14951 ft 302 kts 281°
2026-05-06 18:40 47.04963 7.40423 13466 ft 291 kts 282°
2026-05-06 18:40 47.05424 7.37794 12722 ft 287 kts 282°
2026-05-06 18:40 47.05799 7.34999 11947 ft 279 kts 268°
2026-05-06 18:40 47.05489 7.32238 11183 ft 273 kts 256°
2026-05-06 18:41 47.05033 7.29552 10443 ft 269 kts 254°
2026-05-06 18:41 47.04551 7.26913 9703 ft 266 kts 253°
2026-05-06 18:41 47.04050 7.24319 8895 ft 262 kts 250°
2026-05-06 18:41 47.03066 7.22155 8348 ft 253 kts 226°
2026-05-06 18:42 47.01844 7.20337 7648 ft 250 kts 227°
2026-05-06 18:42 47.00628 7.18499 6909 ft 252 kts 227°
2026-05-06 18:42 46.99447 7.16650 6473 ft 242 kts 228°
2026-05-06 18:42 46.98342 7.14910 6172 ft 225 kts 228°
2026-05-06 18:43 46.97299 7.13286 5857 ft 213 kts 227°
2026-05-06 18:43 46.96300 7.11747 5538 ft 203 kts 227°
2026-05-06 18:43 46.95409 7.10395 5255 ft 168 kts 227°
2026-05-06 18:43 46.94660 7.09289 5122 ft 143 kts 226°
2026-05-06 18:44 46.93964 7.08286 5057 ft 136 kts 226°
2026-05-06 18:44 46.93293 7.07333 5027 ft 133 kts 226°
2026-05-06 18:44 46.92626 7.06395 4934 ft 138 kts 227°
2026-05-06 18:44 46.92006 7.05337 4648 ft 138 kts 238°
2026-05-06 18:45 46.91510 7.04150 4293 ft 140 kts 239°
2026-05-06 18:45 46.91008 7.02912 3899 ft 143 kts 240°
2026-05-06 18:45 46.90460 7.01716 3616 ft 140 kts 232°
2026-05-06 18:45 46.89837 7.00603 3230 ft 143 kts 232°
2026-05-06 18:46 46.89219 6.99515 2999 ft 134 kts 228°
2026-05-06 18:46 46.88625 6.98588 2709 ft 114 kts 227°
2026-05-06 18:46 46.88105 6.97698 2493 ft 112 kts 232°
2026-05-06 18:46 46.87595 6.96830 2382 ft 115 kts 229°
2026-05-06 18:47 46.87043 6.95966 2218 ft 119 kts 228°
2026-05-06 18:47 46.86517 6.95099 2044 ft 109 kts 229°
2026-05-06 18:47 46.86007 6.94274 1835 ft 109 kts 229°
2026-05-06 18:47 46.85498 6.93437 1642 ft 110 kts 230°
2026-05-06 18:48 46.85012 6.92634 1481 ft 96 kts 230°
2026-05-06 18:48 46.84730 6.92160 1462 ft 18 kts 229°
2026-05-06 18:48 46.84626 6.91989 1465 ft 26 kts 231°
2026-05-06 18:48 46.84516 6.91801 1468 ft 23 kts 227°
2026-05-06 18:49 46.84401 6.91655 1470 ft 18 kts 170°
2026-05-06 18:49 46.84295 6.91665 1465 ft 26 kts 226°
2026-05-06 18:49 46.84151 6.91421 1466 ft 25 kts 228°
2026-05-06 18:49 46.84050 6.91457 1463 ft 12 kts 73°
2026-05-06 18:50 46.84049 6.91533 1463 ft 0 kts 102°